This is the latest recevied weather packets stored in our database for station/object RA1AMO-10. If no packets are shown the sender has not sent any weather packets the latest 1 day(s).
| Time | Temp. | Humidity | Pressure | Rain* | Wind** | Luminosity | Snow |
|---|---|---|---|---|---|---|---|
| 1778050132 | 5.56° C | 67% | 1009 hPa | - | - | - | - |
| 1778049232 | 5.56° C | 67% | 1008.9 hPa | - | - | - | - |
| 1778048332 | 5.56° C | 66% | 1009 hPa | - | - | - | - |
| 1778045631 | 5° C | 71% | 1008.3 hPa | - | - | - | - |
| 1778044731 | 5° C | 71% | 1007.9 hPa | - | - | - | - |
| 1778043831 | 5° C | 69% | 1007.7 hPa | - | - | - | - |
| 1778042931 | 5° C | 68% | 1007.6 hPa | - | - | - | - |
| 1778040230 | 5.56° C | 70% | 1006.9 hPa | - | - | - | - |
| 1778039330 | 5.56° C | 71% | 1006.7 hPa | - | - | - | - |
| 1778038430 | 5° C | 73% | 1006.6 hPa | - | - | - | - |
| 1778037530 | 5° C | 78% | 1006.3 hPa | - | - | - | - |
| 1778034829 | 5° C | 80% | 1005.7 hPa | - | - | - | - |
| 1778033929 | 5° C | 82% | 1005.5 hPa | - | - | - | - |
| 1778033029 | 5° C | 79% | 1005.4 hPa | - | - | - | - |
| 1778032129 | 4.44° C | 77% | 1005.2 hPa | - | - | - | - |
| 1778029428 | 4.44° C | 73% | 1005 hPa | - | - | - | - |
| 1778028528 | 4.44° C | 72% | 1004.9 hPa | - | - | - | - |
| 1778027628 | 4.44° C | 70% | 1004.9 hPa | - | - | - | - |
| 1778026728 | 5° C | 70% | 1004.7 hPa | - | - | - | - |
| 1778022227 | 5.56° C | 65% | 1004.4 hPa | - | - | - | - |
| 1778021327 | 5.56° C | 63% | 1004.3 hPa | - | - | - | - |
| 1778016826 | 6.11° C | 64% | 1004.4 hPa | - | - | - | - |
| 1778015926 | 6.67° C | 64% | 1004.3 hPa | - | - | - | - |
| 1778011425 | 7.22° C | 62% | 1003.9 hPa | - | - | - | - |
* Rain since midnight (hover to see other rain measurements)
** Current wind speed in m/s (hover to see current wind gust speed)